Dublin, VA

8:56 AM EDT on May 23, 2017 (GMT -0400)
New River Valley

Weather History for KPSK - January, 2014

Change the Weather History Date:

Sunday, January 26, 2014

  Actual Average (KBCB) Record (KBCB)
Temperature  
Mean Temperature 30 °F -  
Max Temperature 46 °F 42 °F 68 °F (1967)
Min Temperature 14 °F 21 °F 4 °F (1963)
Degree Days  
Heating Degree Days 35    
Moisture  
Dew Point 9 °F    
Average Humidity 41    
Maximum Humidity 61    
Minimum Humidity 24    
Precipitation  
Precipitation 0.00 in - - ()
Sea Level Pressure  
Sea Level Pressure 29.79 in    
Wind  
Wind Speed 12 mph (WSW)    
Max Wind Speed 28 mph    
Max Gust Speed 33 mph    
Visibility 10 miles    
Events      
Averages and records for this station are not official NWS values.
T = Trace of Precipitation, MM = Missing Value Source: NWS Daily Summary

Daily Weather History Graph

Daily Weather History Graph

Search for Another Location

Airport or City:

Trip Planner

Search our weather history database for the weather conditions in past years. The results will help you decide how hot, cold, wet, or windy it might be!

Date:

Astronomy

Jan. 26, 2014 Rise Set
Actual Time 7:29 AM EST 5:41 PM EST
Civil Twilight 7:02 AM EST 6:08 PM EST
Nautical Twilight 6:30 AM EST 6:40 PM EST
Astronomical Twilight 5:59 AM EST 7:11 PM EST
Moon 3:05 AM EST (1/26) 1:29 PM EST (1/26)
Length of Visible Light 11h 06m
Length of Day
10h 11m
Waning Crescent, 24% of the Moon is Illuminated
Jan 26
Waning Crescent
Jan 30
New
Feb 6
First Quarter
Feb 14
Full
Feb 22
Last Quarter

Hourly Weather History & Observations

Time (EST) Temp. Windchill Dew Point Humidity Pressure Visibility Wind Dir Wind Speed Gust Speed Precip Events Conditions
12:15 AM 24.8 °F 10.3 °F 6.8 °F 46% 29.76 in 10.0 mi West 20.7 mph 26.5 mph N/A   Clear
12:35 AM 23.0 °F 9.2 °F 3.2 °F 43% 29.76 in 10.0 mi West 17.3 mph 27.6 mph N/A   Clear
12:55 AM 23.0 °F 8.7 °F 3.2 °F 43% 29.78 in 10.0 mi West 18.4 mph 27.6 mph N/A   Clear
1:15 AM 23.0 °F 8.7 °F 1.4 °F 39% 29.79 in 10.0 mi West 18.4 mph 27.6 mph N/A   Clear
1:35 AM 21.2 °F 3.5 °F -0.4 °F 39% 29.79 in 10.0 mi WNW 27.6 mph 33.4 mph N/A   Clear
1:55 AM 21.2 °F 6.4 °F -2.2 °F 36% 29.79 in 10.0 mi West 18.4 mph 27.6 mph N/A   Clear
2:15 AM 21.2 °F 10.1 °F -2.2 °F 36% 29.80 in 10.0 mi WNW 10.4 mph 16.1 mph N/A   Clear
2:35 AM 19.4 °F 9.5 °F -0.4 °F 42% 29.80 in 10.0 mi West 8.1 mph - N/A   Clear
2:55 AM 19.4 °F 11.5 °F -0.4 °F 42% 29.80 in 10.0 mi West 5.8 mph - N/A   Clear
3:15 AM 19.4 °F 7.9 °F -0.4 °F 42% 29.82 in 10.0 mi West 10.4 mph 20.7 mph N/A   Clear
3:35 AM 19.4 °F 8.6 °F -0.4 °F 42% 29.82 in 10.0 mi West 9.2 mph - N/A   Clear
3:55 AM 19.4 °F 7.2 °F -2.2 °F 39% 29.82 in 10.0 mi West 11.5 mph - N/A   Clear
4:15 AM 19.4 °F 10.4 °F -4.0 °F 36% 29.82 in 10.0 mi West 6.9 mph - N/A   Clear
4:35 AM 17.6 °F 10.7 °F -4.0 °F 38% 29.82 in 10.0 mi West 4.6 mph - N/A   Clear
4:55 AM 17.6 °F 7.3 °F -4.0 °F 38% 29.84 in 10.0 mi West 8.1 mph - N/A   Clear
5:15 AM 17.6 °F 7.3 °F -5.8 °F 35% 29.84 in 10.0 mi West 8.1 mph - N/A   Clear
5:35 AM 17.6 °F 10.7 °F -7.6 °F 32% 29.82 in 10.0 mi West 4.6 mph - N/A   Clear
5:55 AM 17.6 °F 9.3 °F -7.6 °F 32% 29.82 in 10.0 mi West 5.8 mph - N/A   Clear
6:15 AM 15.8 °F 7.2 °F -7.6 °F 35% 29.83 in 10.0 mi West 5.8 mph - N/A   Clear
6:35 AM 17.6 °F 9.3 °F -9.4 °F 30% 29.86 in 10.0 mi West 5.8 mph - N/A   Clear
6:55 AM 15.8 °F - -9.4 °F 32% 29.84 in 10.0 mi Calm Calm - N/A   Clear
7:15 AM 15.8 °F 8.6 °F -7.6 °F 35% 29.85 in 10.0 mi South 4.6 mph - N/A   Clear
7:35 AM 14.0 °F 3.9 °F -2.2 °F 49% 29.84 in 10.0 mi SW 6.9 mph - N/A   Clear
7:55 AM 15.8 °F 6.1 °F -0.4 °F 49% 29.84 in 10.0 mi SW 6.9 mph - N/A   Clear
8:15 AM 17.6 °F 6.4 °F 1.4 °F 49% 29.84 in 10.0 mi WSW 9.2 mph - N/A   Clear
8:35 AM 19.4 °F 7.2 °F 1.4 °F 46% 29.84 in 10.0 mi SW 11.5 mph - N/A   Clear
8:55 AM 21.2 °F 10.1 °F 1.4 °F 42% 29.84 in 5.0 mi SW 10.4 mph - N/A   Haze
9:15 AM 23.0 °F 11.7 °F 3.2 °F 43% 29.84 in 10.0 mi SW 11.5 mph - N/A   Clear
9:35 AM 24.8 °F 15.3 °F 3.2 °F 40% 29.84 in 10.0 mi SW 9.2 mph - N/A   Clear
9:55 AM 26.6 °F 16.2 °F 1.4 °F 34% 29.83 in 10.0 mi West 11.5 mph 16.1 mph N/A   Clear
10:15 AM 28.4 °F 17.5 °F 1.4 °F 31% 29.83 in 10.0 mi West 13.8 mph - N/A   Clear
10:35 AM 28.4 °F 18.5 °F 5.0 °F 37% 29.82 in 10.0 mi West 11.5 mph - N/A   Clear
10:55 AM 30.2 °F 19.8 °F 5.0 °F 34% 29.80 in 10.0 mi WSW 13.8 mph - N/A   Clear
11:15 AM 32.0 °F 23.0 °F 3.2 °F 30% 29.81 in 10.0 mi WSW 11.5 mph 20.7 mph N/A   Scattered Clouds
11:35 AM 33.8 °F 25.3 °F 3.2 °F 28% 29.81 in 10.0 mi WSW 11.5 mph 17.3 mph N/A   Scattered Clouds
11:55 AM 35.6 °F 27.1 °F 3.2 °F 26% 29.80 in 10.0 mi SW 12.7 mph - N/A   Scattered Clouds
12:15 PM 35.6 °F 25.9 °F 3.2 °F 26% 29.79 in 10.0 mi SW 16.1 mph 24.2 mph N/A   Mostly Cloudy
12:35 PM 37.4 °F 28.9 °F 3.2 °F 24% 29.78 in 10.0 mi SW 13.8 mph 23.0 mph N/A   Overcast
12:55 PM 37.4 °F 27.8 °F 12.2 °F 36% 29.77 in 10.0 mi WSW 17.3 mph 27.6 mph N/A   Overcast
1:15 PM 39.2 °F 30.5 °F 17.6 °F 42% 29.76 in 10.0 mi WSW 16.1 mph 27.6 mph N/A   Mostly Cloudy
1:35 PM 39.2 °F 28.7 °F 19.4 °F 45% 29.76 in 10.0 mi WSW 23.0 mph 26.5 mph N/A   Overcast
1:55 PM 41.0 °F 31.6 °F 21.2 °F 45% 29.75 in 10.0 mi SW 20.7 mph 27.6 mph N/A   Overcast
2:15 PM 42.8 °F 34.0 °F 21.2 °F 42% 29.74 in 10.0 mi SW 20.7 mph 32.2 mph N/A   Overcast
2:35 PM 42.8 °F 34.8 °F 23.0 °F 46% 29.74 in 10.0 mi SW 17.3 mph 25.3 mph N/A   Overcast
2:55 PM 42.8 °F 33.3 °F 24.8 °F 49% 29.74 in 10.0 mi WSW 24.2 mph 32.2 mph N/A   Mostly Cloudy
3:15 PM 44.6 °F 36.6 °F 24.8 °F 46% 29.74 in 10.0 mi WSW 19.6 mph 29.9 mph N/A   Clear
3:35 PM 44.6 °F 36.1 °F 24.8 °F 46% 29.73 in 10.0 mi WSW 21.9 mph 26.5 mph N/A   Clear
3:55 PM 44.6 °F 37.4 °F 24.8 °F 46% 29.73 in 10.0 mi WSW 16.1 mph 23.0 mph N/A   Clear
4:15 PM 46.4 °F 40.1 °F 24.8 °F 43% 29.73 in 10.0 mi WSW 15.0 mph - N/A   Clear
4:35 PM 46.4 °F 39.2 °F 24.8 °F 43% 29.74 in 10.0 mi WSW 18.4 mph 25.3 mph N/A   Clear
4:55 PM 44.6 °F 37.4 °F 24.8 °F 46% 29.74 in 10.0 mi WSW 16.1 mph 21.9 mph N/A   Clear
5:15 PM 44.6 °F 37.8 °F 24.8 °F 46% 29.75 in 10.0 mi WSW 15.0 mph 18.4 mph N/A   Scattered Clouds
5:35 PM 44.6 °F 39.2 °F 24.8 °F 46% 29.75 in 10.0 mi WSW 10.4 mph - N/A   Clear
5:55 PM 42.8 °F 37.5 °F 26.6 °F 53% 29.76 in 10.0 mi West 9.2 mph - N/A   Scattered Clouds
6:15 PM 39.2 °F 35.9 °F 26.6 °F 61% 29.76 in 10.0 mi South 4.6 mph - N/A   Scattered Clouds
6:35 PM 41.0 °F 38.0 °F 26.6 °F 57% 29.76 in 10.0 mi South 4.6 mph - N/A   Clear
6:55 PM 39.2 °F - 15.8 °F 39% 29.77 in 10.0 mi Calm Calm - N/A   Clear
7:15 PM 39.2 °F - 10.4 °F 31% 29.77 in 10.0 mi Calm Calm - N/A   Clear
7:35 PM 39.2 °F 35.9 °F 10.4 °F 31% 29.76 in 10.0 mi SSW 4.6 mph - N/A   Clear
7:55 PM 35.6 °F - 12.2 °F 38% 29.76 in 10.0 mi Calm Calm - N/A   Clear
8:15 PM 35.6 °F - 15.8 °F 44% 29.77 in 10.0 mi Calm Calm - N/A   Clear
8:35 PM 35.6 °F - 14.0 °F 41% 29.76 in 10.0 mi Calm Calm - N/A   Clear
8:55 PM 33.8 °F 30.8 °F 15.8 °F 48% 29.77 in 10.0 mi West 3.5 mph - N/A   Clear
9:15 PM 33.8 °F 30.8 °F 15.8 °F 48% 29.77 in 10.0 mi WSW 3.5 mph - N/A   Clear
9:35 PM 35.6 °F 31.7 °F 15.8 °F 44% 29.76 in 10.0 mi West 4.6 mph - N/A   Clear
9:55 PM 33.8 °F 29.6 °F 17.6 °F 52% 29.77 in 10.0 mi WSW 4.6 mph - N/A   Clear
10:15 PM 33.8 °F 29.6 °F 15.8 °F 48% 29.77 in 10.0 mi WSW 4.6 mph - N/A   Clear
10:35 PM 35.6 °F 31.7 °F 15.8 °F 44% 29.77 in 10.0 mi SW 4.6 mph - N/A   Clear
10:55 PM 35.6 °F 32.8 °F 15.8 °F 44% 29.77 in 10.0 mi SSW 3.5 mph - N/A   Clear
11:15 PM 35.6 °F - 15.8 °F 44% 29.76 in 10.0 mi Calm Calm - N/A   Clear
11:35 PM 35.6 °F - 17.6 °F 48% 29.76 in 10.0 mi Calm Calm - N/A   Clear
11:55 PM 33.8 °F 30.8 °F 19.4 °F 56% 29.76 in 10.0 mi WSW 3.5 mph - N/A   Clear